Dades meteomassalio
Diari Summary for Marc 25, 2017 Units:  Metric    English   Both
« Previous Day
Next Day »
Diari Semanal Mensual Anual Personalitzat
  Maxima: Minima: Mijana:
Temperatura: -17.8 °C -14.6 °C -12.7 °C
Rosada: -17.8 °C -16.8 °C -15.2 °C
Humitat: Humidity % 50 % 75 %
Velocitat del vent: 0 km/h 0 km/h 9.3 km/h
Racha vent: 0 km/h - -
Vent:- - SE
Pressio: 0 hPa 34235.8 hPa -
Pluja: 25.4 mm    
Historical Graphs
 
 
Tabular Data for Marc 25, 2017
Time Temperature Dew Point Pressure Wind Wind Speed Wind Gust Humidity Rainfall Rate (Hourly) solar Conditions
-17.8 °C -17.8 °C 0 hPa Calm     Humidity % 0 mm SolarRadiationWatts/m^2 W/m2 Conditions
00:01 -13.7 °C -15.4 °C 34347.6 hPa Calm     81 % 0 mm 0.0 W/m2 RA
00:06 -13.8 °C -15.4 °C 34347.6 hPa Calm     82 % 0 mm 0.0 W/m2 CLR
00:11 -13.8 °C -15.2 °C 34347.6 hPa Calm     84 % 0 mm 0.0 W/m2 CLR
00:16 -13.9 °C -15.2 °C 34347.6 hPa Calm     85 % 0 mm 0.0 W/m2 CLR
00:21 -13.9 °C -15.2 °C 34347.6 hPa Calm     86 % 0 mm 0.0 W/m2 CLR
00:26 -14 °C -15.2 °C 34347.6 hPa Calm     86 % 0 mm 0.0 W/m2 CLR
00:31 -14.1 °C -15.2 °C 34347.6 hPa Calm     87 % 0 mm 0.0 W/m2 CLR
00:36 -14.1 °C -15.2 °C 34347.6 hPa NNE 2.6 km/h 2.6 km/h 87 % 0 mm 0.0 W/m2 RA
00:41 -14.1 °C -15.2 °C 34337.4 hPa ENE 9 km/h 9 km/h 88 % 0 mm 0.0 W/m2
00:46 -14.2 °C -15.1 °C 34337.4 hPa Calm     89 % 0 mm 0.0 W/m2 CLR
00:51 -14.2 °C -15.1 °C 34337.4 hPa Calm     89 % 7.62 mm 0.0 W/m2 RA
00:56 -14.2 °C -15.2 °C 34337.4 hPa Calm     89 % 7.62 mm 0.0 W/m2 CLR
01:01 -14.3 °C -15.1 °C 34337.4 hPa Calm     90 % 12.7 mm 0.0 W/m2 CLR
01:06 -14.3 °C -15.1 °C 34337.4 hPa Calm     90 % 12.7 mm 0.0 W/m2 CLR
01:07 -14.3 °C -15.1 °C 34337.4 hPa Calm     90 % 12.7 mm 0.0 W/m2 CLR
01:12 -14.3 °C -15.1 °C 34337.4 hPa Calm     90 % 12.7 mm 0.0 W/m2 RA
01:18 -14.3 °C -15.1 °C 34337.4 hPa Calm     90 % 12.7 mm 0.0 W/m2
01:23 -14.3 °C -15.1 °C 34337.4 hPa Calm     90 % 20.32 mm 0.0 W/m2 RA
01:28 -14.3 °C -15.1 °C 34337.4 hPa Calm     90 % 20.32 mm 0.0 W/m2 CLR
01:33 -14.3 °C -15.1 °C 34327.3 hPa Calm     90 % 25.4 mm 0.0 W/m2 RA
01:38 -14.3 °C -15.1 °C 34337.4 hPa SW 9 km/h 9 km/h 90 % 20.32 mm 0.0 W/m2 CLR
01:43 -14.3 °C -15.1 °C 34327.3 hPa Calm     91 % 20.32 mm 0.0 W/m2 CLR
01:48 -14.3 °C -15.1 °C 34313.7 hPa Calm     91 % 12.7 mm 0.0 W/m2 CLR
01:53 -14.3 °C -15.1 °C 34313.7 hPa Calm     91 % 12.7 mm 0.0 W/m2 CLR
01:58 -14.3 °C -15.1 °C 34313.7 hPa Calm     91 % 12.7 mm 0.0 W/m2 CLR
02:03 -14.3 °C -15.1 °C 34313.7 hPa Calm     91 % 12.7 mm 0.0 W/m2 CLR
02:08 -14.3 °C -15.1 °C 34313.7 hPa Calm     91 % 12.7 mm 0.0 W/m2 CLR
02:13 -14.3 °C -15.1 °C 34313.7 hPa Calm     91 % 12.7 mm 0.0 W/m2 CLR
02:18 -14.3 °C -15.1 °C 34303.6 hPa Calm     92 % 12.7 mm 0.0 W/m2 CLR
02:23 -14.3 °C -15.1 °C 34303.6 hPa Calm     92 % 7.62 mm 0.0 W/m2 CLR
02:28 -14.3 °C -15.1 °C 34303.6 hPa SSW 9 km/h 9 km/h 91 % 7.62 mm 0.0 W/m2 CLR
02:33 -14.4 °C -15.1 °C 34303.6 hPa Calm     91 % 0 mm 0.0 W/m2 CLR
02:38 -14.4 °C -15.1 °C 34303.6 hPa Calm     92 % 0 mm 0.0 W/m2 CLR
02:43 -14.4 °C -15.1 °C 34303.6 hPa Calm     92 % 0 mm 0.0 W/m2 CLR
02:48 -14.4 °C -15.1 °C 34303.6 hPa SW 3.1 km/h   91 % 0 mm 0.0 W/m2 CLR
02:53 -14.4 °C -15.1 °C 34303.6 hPa Calm     91 % 0 mm 0.0 W/m2 CLR
02:58 -14.4 °C -15.2 °C 34293.4 hPa West 2.6 km/h   91 % 0 mm 0.0 W/m2 CLR
03:03 -14.4 °C -15.2 °C 34279.9 hPa Calm     91 % 0 mm 0.0 W/m2 CLR
03:08 -14.4 °C -15.2 °C 34279.9 hPa Calm     91 % 0 mm 0.0 W/m2 CLR
03:13 -14.4 °C -15.2 °C 34279.9 hPa Calm     91 % 0 mm 0.0 W/m2 CLR
03:18 -14.4 °C -15.2 °C 34279.9 hPa Calm     91 % 0 mm 0.0 W/m2 CLR
03:23 -14.4 °C -15.2 °C 34269.7 hPa Calm     91 % 0 mm 0.0 W/m2 CLR
03:28 -14.4 °C -15.2 °C 34269.7 hPa Calm     91 % 0 mm 0.0 W/m2 CLR
03:33 -14.4 °C -15.2 °C 34256.2 hPa Calm     91 % 0 mm 0.0 W/m2 CLR
03:38 -14.5 °C -15.2 °C 34246 hPa Calm     91 % 0 mm 0.0 W/m2 CLR
03:43 -14.5 °C -15.2 °C 34246 hPa Calm     91 % 0 mm 0.0 W/m2 CLR
03:48 -14.5 °C -15.2 °C 34246 hPa Calm     91 % 0 mm 0.0 W/m2 CLR
03:53 -14.4 °C -15.1 °C 34246 hPa Calm     92 % 0 mm 0.0 W/m2 CLR
03:58 -14.4 °C -15.1 °C 34246 hPa Calm     92 % 0 mm 0.0 W/m2 CLR
04:03 -14.4 °C -15.1 °C 34235.8 hPa Calm     92 % 0 mm 0.0 W/m2 CLR
04:08 -14.4 °C -15.1 °C 34235.8 hPa Calm     92 % 0 mm 0.0 W/m2 CLR
04:13 -14.5 °C -15.2 °C 34235.8 hPa Calm     92 % 0 mm 0.0 W/m2 CLR
04:18 -14.5 °C -15.2 °C 34235.8 hPa Calm     92 % 0 mm 0.0 W/m2 CLR
04:23 -14.5 °C -15.2 °C 34235.8 hPa Calm     92 % 0 mm 0.0 W/m2 CLR
04:28 -14.6 °C -15.2 °C 34246 hPa Calm     92 % 0 mm 0.0 W/m2 CLR
04:33 -14.6 °C -15.2 °C 34246 hPa Calm     92 % 0 mm 0.0 W/m2 CLR
04:38 -14.6 °C -15.2 °C 34246 hPa Calm     92 % 0 mm 0.0 W/m2 CLR
04:43 -14.6 °C -15.3 °C 34256.2 hPa ENE 6 km/h   92 % 0 mm 0.0 W/m2 CLR
04:48 -14.6 °C -15.3 °C 34256.2 hPa East 6 km/h 6 km/h 92 % 0 mm 0.0 W/m2 CLR
04:53 -14.6 °C -15.3 °C 34256.2 hPa Calm     92 % 0 mm 0.0 W/m2 CLR
04:59 -14.6 °C -15.3 °C 34256.2 hPa Calm     92 % 0 mm 0.0 W/m2 CLR
05:09 -14.6 °C -15.3 °C 34256.2 hPa Calm     92 % 0 mm 0.0 W/m2 CLR
05:14 -14.6 °C -15.3 °C 34269.7 hPa Calm     92 % 0 mm 0.0 W/m2 CLR
05:19 -14.6 °C -15.2 °C 34269.7 hPa Calm     92 % 0 mm 0.0 W/m2 CLR
05:24 -14.6 °C -15.2 °C 34269.7 hPa Calm     92 % 0 mm 0.0 W/m2 CLR
05:29 -14.6 °C -15.2 °C 34269.7 hPa Calm     92 % 0 mm 0.0 W/m2 CLR
05:34 -14.6 °C -15.2 °C 34279.9 hPa Calm     93 % 0 mm 0.0 W/m2 CLR
05:39 -14.6 °C -15.2 °C 34293.4 hPa Calm     93 % 0 mm 0.0 W/m2 CLR
05:44 -14.6 °C -15.1 °C 34293.4 hPa Calm     93 % 0 mm 0.0 W/m2 CLR
05:49 -14.6 °C -15.1 °C 34293.4 hPa Calm     93 % 0 mm 0.0 W/m2 CLR
05:54 -14.6 °C -15.1 °C 34293.4 hPa Calm     93 % 0 mm 0.0 W/m2 CLR
05:59 -14.5 °C -15.1 °C 34293.4 hPa Calm     93 % 0 mm 0.0 W/m2 CLR
06:04 -14.6 °C -15.1 °C 34293.4 hPa Calm   0.3 km/h 93 % 0 mm 0.0 W/m2 CLR
06:09 -14.5 °C -15.1 °C 34293.4 hPa Calm     93 % 0 mm 0.0 W/m2 CLR
06:14 -14.5 °C -15.2 °C 34293.4 hPa Calm     92 % 0 mm 0.0 W/m2 CLR
06:19 -14.4 °C -15.1 °C 34293.4 hPa WSW 10.3 km/h 10.3 km/h 92 % 0 mm 0.0 W/m2 CLR
06:24 -14.3 °C -15.1 °C 34279.9 hPa West 15 km/h 15 km/h 91 % 0 mm 0.0 W/m2 CLR
06:29 -14.2 °C -15.1 °C 34279.9 hPa West 20.9 km/h 20.9 km/h 90 % 0 mm 0.0 W/m2 CLR
06:34 -14.2 °C -15.1 °C 34279.9 hPa West 17.9 km/h 17.9 km/h 89 % 0 mm 0.0 W/m2 CLR
06:39 -14.2 °C -15.2 °C 34293.4 hPa WNW 20.9 km/h 20.9 km/h 88 % 0 mm 0.0 W/m2 CLR
06:44 -14.2 °C -15.2 °C 34293.4 hPa WNW 10.3 km/h 10.3 km/h 88 % 0 mm 0.0 W/m2 CLR
06:49 -14.2 °C -15.2 °C 34293.4 hPa WNW 11.9 km/h 11.9 km/h 88 % 0 mm 0.0 W/m2 OVC
06:54 -14.3 °C -15.3 °C 34293.4 hPa Calm     88 % 0 mm 0.0 W/m2 OVC
06:59 -14.3 °C -15.4 °C 34293.4 hPa West 9 km/h 9 km/h 87 % 0 mm 0.0 W/m2 OVC
07:04 -14.3 °C -15.4 °C 34293.4 hPa West 9 km/h 9 km/h 87 % 0 mm 5.0 W/m2 OVC
07:09 -14.3 °C -15.5 °C 34303.6 hPa Calm     86 % 0 mm 9.0 W/m2 BKN
07:14 -14.3 °C -15.5 °C 34303.6 hPa Calm     86 % 0 mm 12.0 W/m2 BKN
07:19 -14.3 °C -15.5 °C 34303.6 hPa SW 9 km/h 9 km/h 86 % 0 mm 16.0 W/m2 BKN
07:24 -14.3 °C -15.6 °C 34303.6 hPa SW 9 km/h 9 km/h 86 % 0 mm 21.0 W/m2 BKN
07:34 -14.4 °C -15.6 °C 34313.7 hPa Calm     86 % 0 mm 32.0 W/m2 BKN
07:39 -14.4 °C -15.6 °C 34313.7 hPa Calm     86 % 0 mm 39.0 W/m2 BKN
07:44 -14.4 °C -15.6 °C 34313.7 hPa Calm     86 % 0 mm 46.0 W/m2 SCT
07:49 -14.3 °C -15.5 °C 34313.7 hPa Calm     86 % 0 mm 51.0 W/m2 SCT
07:54 -14.3 °C -15.5 °C 34327.3 hPa Calm     86 % 0 mm 53.0 W/m2 SCT
07:57 -14.3 °C -15.5 °C 34327.3 hPa Calm     86 % 0 mm 56.0 W/m2 SCT
08:02 -14.3 °C -15.5 °C 34327.3 hPa Calm     86 % 0 mm 63.0 W/m2 SCT
08:07 -14.3 °C -15.4 °C 34327.3 hPa Calm     86 % 0 mm 63.0 W/m2 SCT
08:12 -14.2 °C -15.5 °C 34327.3 hPa Calm     85 % 0 mm 69.0 W/m2 SCT
08:17 -14.2 °C -15.5 °C 34337.4 hPa Calm     85 % 0 mm 72.0 W/m2 FEW
08:22 -14.2 °C -15.4 °C 34337.4 hPa Calm     85 % 0 mm 104.0 W/m2 FEW
08:27 -14.1 °C -15.3 °C 34337.4 hPa Calm     86 % 0 mm 127.0 W/m2 CLR
08:32 -14.1 °C -15.3 °C 34337.4 hPa Calm     86 % 0 mm 144.0 W/m2 CLR
08:37 -14 °C -15.2 °C 34337.4 hPa Calm     86 % 0 mm 158.0 W/m2 CLR
08:42 -13.9 °C -15.1 °C 34337.4 hPa South 15.6 km/h 15.6 km/h 86 % 0 mm 172.0 W/m2 CLR
08:52 -13.7 °C -15.3 °C 34337.4 hPa SSE 10.3 km/h 10.3 km/h 82 % 0 mm 204.0 W/m2 CLR
08:57 -13.7 °C -15.3 °C 34337.4 hPa SSE 9 km/h 9 km/h 81 % 0 mm 216.0 W/m2 CLR
09:02 -13.6 °C -15.1 °C 34337.4 hPa SE 10.3 km/h 10.3 km/h 83 % 0 mm 225.0 W/m2 CLR
09:07 -13.5 °C -15 °C 34337.4 hPa SE 9 km/h 9 km/h 83 % 0 mm 257.0 W/m2 CLR
09:12 -13.4 °C -14.9 °C 34337.4 hPa Calm     83 % 0 mm 269.0 W/m2 CLR
09:17 -13.3 °C -14.9 °C 34337.4 hPa Calm     82 % 0 mm 250.0 W/m2 CLR
09:22 -13.2 °C -14.8 °C 34337.4 hPa Calm     82 % 0 mm 276.0 W/m2 CLR
09:27 -13.1 °C -14.7 °C 34337.4 hPa Calm     82 % 0 mm 283.0 W/m2 CLR
09:32 -13 °C -14.7 °C 34337.4 hPa Calm     81 % 0 mm 323.0 W/m2 CLR
09:37 -12.9 °C -14.8 °C 34337.4 hPa Calm     79 % 0 mm 350.0 W/m2 CLR
09:42 -12.7 °C -14.7 °C 34337.4 hPa Calm     79 % 0 mm 374.0 W/m2 CLR
09:47 -12.6 °C -14.6 °C 34337.4 hPa Calm     78 % 0 mm 436.0 W/m2 CLR
09:52 -12.3 °C -14.3 °C 34337.4 hPa Calm     78 % 0 mm 473.0 W/m2 CLR
09:57 -12.1 °C -14.3 °C 34337.4 hPa Calm     77 % 0 mm 469.0 W/m2 CLR
10:03 -11.9 °C -14.5 °C 34337.4 hPa Calm     73 % 0 mm 512.0 W/m2 CLR
10:08 -11.8 °C -14.7 °C 34337.4 hPa Calm     70 % 0 mm 550.0 W/m2 CLR
10:13 -11.6 °C -15.4 °C 34337.4 hPa West 9 km/h 9 km/h 63 % 0 mm 578.0 W/m2 CLR
10:18 -11.3 °C -15.4 °C 34337.4 hPa NNE 29.8 km/h 29.8 km/h 61 % 0 mm 642.0 W/m2 CLR
10:23 -11.3 °C -15.4 °C 34337.4 hPa NW 15.6 km/h 15.6 km/h 60 % 0 mm 294.0 W/m2 CLR
10:28 -11.2 °C -15.5 °C 34337.4 hPa NW 23.8 km/h 23.8 km/h 59 % 0 mm 598.0 W/m2 CLR
10:33 -11.2 °C -15.8 °C 34337.4 hPa West 23.8 km/h 23.8 km/h 57 % 0 mm 636.0 W/m2 CLR
10:38 -11.2 °C -16.1 °C 34337.4 hPa NNW 32.8 km/h 32.8 km/h 55 % 0 mm 649.0 W/m2 CLR
10:43 -11.1 °C -15.8 °C 34337.4 hPa North 18.2 km/h 18.2 km/h 56 % 0 mm 633.0 W/m2 CLR
10:48 -11 °C -15.6 °C 34337.4 hPa NNW 17.9 km/h 17.9 km/h 57 % 0 mm 608.0 W/m2 CLR
10:53 -11.1 °C -16.1 °C 34347.6 hPa WNW 17.9 km/h 17.9 km/h 54 % 0 mm 656.0 W/m2 CLR
10:58 -10.9 °C -15.7 °C 34347.6 hPa NNW 38.8 km/h 38.8 km/h 56 % 0 mm 452.0 W/m2 CLR
11:03 -11.2 °C -16.4 °C 34347.6 hPa North 41.7 km/h 41.7 km/h 52 % 0 mm 387.0 W/m2 CLR
11:08 -11.2 °C -16.6 °C 34347.6 hPa NW 38.8 km/h 38.8 km/h 51 % 0 mm 439.0 W/m2 CLR
11:13 -11.1 °C -16.3 °C 34347.6 hPa NW 32.8 km/h 32.8 km/h 52 % 0 mm 633.0 W/m2 CLR
11:18 -10.9 °C -16.4 °C 34347.6 hPa NNW 47.6 km/h 47.6 km/h 51 % 0 mm 473.0 W/m2 CLR
11:23 -11 °C -16.6 °C 34347.6 hPa NW 32.8 km/h 32.8 km/h 50 % 0 mm 346.0 W/m2 CLR
11:28 -11.1 °C -16.7 °C 34347.6 hPa WNW 29.8 km/h 29.8 km/h 50 % 0 mm 288.0 W/m2 CLR
11:33 -11.2 °C -16.8 °C 34347.6 hPa NNW 29.8 km/h 29.8 km/h 50 % 0 mm 285.0 W/m2 CLR
11:38 -11.2 °C -16.5 °C 34361.1 hPa NW 10.3 km/h 10.3 km/h 52 % 0 mm 292.0 W/m2 CLR
11:43 -11.2 °C -16.5 °C 34361.1 hPa NNW 6 km/h   52 % 0 mm 309.0 W/m2 CLR
11:48 -11.2 °C -16.3 °C 34361.1 hPa Calm     53 % 0 mm 239.0 W/m2 CLR
11:53 -11.2 °C -16.2 °C 34361.1 hPa NNE 3.1 km/h 3.1 km/h 54 % 0 mm 248.0 W/m2 CLR
11:58 -11.2 °C -16.3 °C 34361.1 hPa NNW 23.8 km/h 23.8 km/h 53 % 0 mm 271.0 W/m2 CLR
12:03 -11.2 °C -16 °C 34361.1 hPa North 29.8 km/h 29.8 km/h 55 % 0 mm 362.0 W/m2 CLR
12:08 -11.1 °C -16 °C 34371.3 hPa NE 9 km/h 9 km/h 55 % 0 mm 360.0 W/m2 CLR
12:13 -11.1 °C -16.3 °C 34371.3 hPa NNE 23.8 km/h 23.8 km/h 52 % 0 mm 436.0 W/m2 CLR
12:18 -11 °C -16.2 °C 34361.1 hPa Calm     53 % 0 mm 515.0 W/m2 CLR
12:23 -10.9 °C -16.2 °C 34361.1 hPa ENE 7.7 km/h 7.7 km/h 52 % 0 mm 455.0 W/m2 CLR
12:28 -10.8 °C -15.8 °C 34361.1 hPa NE 11.9 km/h 11.9 km/h 54 % 0 mm 608.0 W/m2 CLR
12:33 -10.8 °C -15.7 °C 34361.1 hPa NE 29.8 km/h 29.8 km/h 55 % 0 mm 564.0 W/m2 CLR
12:38 -10.8 °C -15.9 °C 34361.1 hPa NE 23.8 km/h 23.8 km/h 54 % 0 mm 587.0 W/m2 CLR
12:43 -10.7 °C -15.7 °C 34361.1 hPa NE 23.8 km/h 23.8 km/h 55 % 0 mm 543.0 W/m2 CLR
12:48 -10.8 °C -16 °C 34361.1 hPa NE 5.1 km/h 5.1 km/h 53 % 0 mm 413.0 W/m2 CLR
12:53 -10.9 °C -15.9 °C 34371.3 hPa ENE 26.9 km/h 26.9 km/h 54 % 0 mm 420.0 W/m2 CLR
12:58 -10.9 °C -15.8 °C 34371.3 hPa NE 26.9 km/h 26.9 km/h 55 % 0 mm 380.0 W/m2 CLR
13:03 -11.1 °C -15.9 °C 34371.3 hPa ENE 9 km/h 9 km/h 55 % 0 mm 397.0 W/m2 CLR
13:08 -11.2 °C -16.2 °C 34371.3 hPa ENE 29.8 km/h 29.8 km/h 54 % 0 mm 352.0 W/m2 CLR
13:13 -11.2 °C -16.1 °C 34371.3 hPa ENE 23.8 km/h 23.8 km/h 55 % 0 mm 332.0 W/m2 CLR
13:18 -11.3 °C -16 °C 34384.8 hPa NNE 26.9 km/h 26.9 km/h 56 % 0 mm 325.0 W/m2 CLR
13:23 -11.3 °C -16 °C 34384.8 hPa NE 20.9 km/h 20.9 km/h 56 % 0 mm 316.0 W/m2 CLR
13:28 -11.3 °C -16 °C 34384.8 hPa NE 20.9 km/h 20.9 km/h 56 % 0 mm 329.0 W/m2 CLR
13:33 -11.3 °C -16 °C 34384.8 hPa North 20.9 km/h 20.9 km/h 56 % 0 mm 364.0 W/m2 CLR
13:38 -11.2 °C -15.9 °C 34384.8 hPa NE 6 km/h 6 km/h 56 % 0 mm 401.0 W/m2 CLR
13:43 -11.1 °C -15.7 °C 34384.8 hPa NE 31.1 km/h 31.1 km/h 57 % 0 mm 462.0 W/m2 CLR
13:48 -11.1 °C -15.7 °C 34384.8 hPa NE 35.7 km/h 35.7 km/h 57 % 0 mm 536.0 W/m2 CLR
13:53 -11 °C -15.6 °C 34371.3 hPa NE 23.8 km/h 23.8 km/h 57 % 0 mm 541.0 W/m2 CLR
13:58 -10.9 °C -15.7 °C 34371.3 hPa NE 9 km/h 9 km/h 56 % 0 mm 647.0 W/m2 CLR
14:03 -10.7 °C -15.6 °C 34371.3 hPa North 17.9 km/h 17.9 km/h 55 % 0 mm 668.0 W/m2 CLR
14:08 -10.6 °C -15.4 °C 34371.3 hPa NE 29.8 km/h 29.8 km/h 56 % 0 mm 714.0 W/m2 CLR
14:13 -10.5 °C -15.3 °C 34371.3 hPa NE 29.8 km/h 29.8 km/h 56 % 0 mm 599.0 W/m2 CLR
14:18 -10.5 °C -15.6 °C 34371.3 hPa NE 23.8 km/h 23.8 km/h 54 % 0 mm 512.0 W/m2 CLR
14:23 -10.6 °C -15.7 °C 34371.3 hPa ENE 26.9 km/h 26.9 km/h 54 % 0 mm 522.0 W/m2 CLR
14:28 -10.6 °C -15.5 °C 34371.3 hPa ENE 26.9 km/h 26.9 km/h 55 % 0 mm 675.0 W/m2 CLR
14:33 -10.6 °C -15.7 °C 34371.3 hPa NE 25.9 km/h 25.9 km/h 54 % 0 mm 499.0 W/m2 CLR
14:38 -10.6 °C -15.3 °C 34371.3 hPa NE 26.9 km/h 26.9 km/h 56 % 0 mm 434.0 W/m2 CLR
14:43 -10.6 °C -15.3 °C 34361.1 hPa ENE 31.1 km/h 31.1 km/h 56 % 0 mm 468.0 W/m2 CLR
14:48 -10.6 °C -15.3 °C 34361.1 hPa ENE 29.8 km/h 29.8 km/h 56 % 0 mm 422.0 W/m2 CLR
14:50 -10.6 °C -15.3 °C 34361.1 hPa NE 35.7 km/h 35.7 km/h 56 % 0 mm 719.0 W/m2 CLR
14:55 -10.6 °C -15.3 °C 34361.1 hPa NE 28.5 km/h 28.5 km/h 56 % 0 mm 684.0 W/m2 CLR
15:00 -10.4 °C -15.1 °C 34361.1 hPa NE 29.8 km/h 29.8 km/h 57 % 0 mm 877.0 W/m2 CLR
15:05 -10.4 °C -15.2 °C 34361.1 hPa ENE 50.7 km/h 50.7 km/h 56 % 0 mm 446.0 W/m2 CLR
15:10 -10.5 °C -15.1 °C 34361.1 hPa ENE 41.7 km/h 41.7 km/h 57 % 0 mm 429.0 W/m2 CLR
15:15 -10.6 °C -15.1 °C 34361.1 hPa NE 33.6 km/h 33.6 km/h 58 % 0 mm 469.0 W/m2 CLR
15:20 -10.6 °C -14.9 °C 34361.1 hPa ENE 41.7 km/h 41.7 km/h 59 % 0 mm 348.0 W/m2 CLR
15:25 -10.7 °C -14.9 °C 34361.1 hPa East 32.8 km/h 32.8 km/h 60 % 0 mm 232.0 W/m2 CLR
15:30 -10.9 °C -14.9 °C 34361.1 hPa East 20.9 km/h 20.9 km/h 61 % 0 mm 225.0 W/m2 CLR
15:35 -10.9 °C -14.8 °C 34361.1 hPa ESE 26.9 km/h 26.9 km/h 62 % 0 mm 297.0 W/m2 CLR
15:40 -10.8 °C -14.8 °C 34347.6 hPa ESE 10.3 km/h 10.3 km/h 62 % 0 mm 671.0 W/m2 CLR
15:41 -10.8 °C -14.6 °C 34347.6 hPa East 15 km/h 15 km/h 63 % 0 mm 671.0 W/m2 CLR
15:46 -10.7 °C -14.8 °C 34347.6 hPa ESE 17.9 km/h 17.9 km/h 61 % 0 mm 526.0 W/m2 CLR
15:51 -10.5 °C -14.9 °C 34347.6 hPa ENE 29.8 km/h 29.8 km/h 59 % 0 mm 441.0 W/m2 CLR
15:56 -10.4 °C -15.1 °C 34347.6 hPa SE 20.9 km/h 20.9 km/h 57 % 0 mm 589.0 W/m2 CLR
16:01 -10.4 °C -15 °C 34347.6 hPa ESE 20.9 km/h 20.9 km/h 57 % 0 mm 587.0 W/m2 CLR
16:06 -10.4 °C -15.3 °C 34337.4 hPa ESE 23.8 km/h 23.8 km/h 55 % 0 mm 554.0 W/m2 CLR
16:11 -10.4 °C -15.3 °C 34337.4 hPa East 15 km/h 15 km/h 55 % 0 mm 494.0 W/m2 CLR
16:16 -10.6 °C -15.4 °C 34337.4 hPa East 23.8 km/h 23.8 km/h 55 % 0 mm 229.0 W/m2 CLR
16:21 -10.6 °C -15.7 °C 34337.4 hPa East 26.9 km/h 26.9 km/h 54 % 0 mm 237.0 W/m2 CLR
16:26 -10.7 °C -15.6 °C 34337.4 hPa ESE 29.8 km/h 29.8 km/h 55 % 0 mm 202.0 W/m2 CLR
16:31 -10.7 °C -15.6 °C 34337.4 hPa East 15 km/h 15 km/h 55 % 0 mm 236.0 W/m2 CLR
16:36 -10.7 °C -15.6 °C 34337.4 hPa ESE 15.6 km/h 15.6 km/h 55 % 0 mm 371.0 W/m2 CLR
16:41 -10.4 °C -15.2 °C 34347.6 hPa ESE 20.9 km/h 20.9 km/h 56 % 0 mm 468.0 W/m2 CLR
16:46 -10.4 °C -15.5 °C 34347.6 hPa East 23.8 km/h 23.8 km/h 54 % 0 mm 404.0 W/m2 CLR
16:51 -10.4 °C -15.5 °C 34347.6 hPa ESE 26.9 km/h 26.9 km/h 54 % 0 mm 380.0 W/m2 CLR
16:56 -10.5 °C -15.6 °C 34347.6 hPa ENE 20.9 km/h 20.9 km/h 54 % 0 mm 193.0 W/m2 CLR
17:01 -10.6 °C -15.6 °C 34347.6 hPa East 18.2 km/h 18.2 km/h 54 % 0 mm 200.0 W/m2 CLR
17:06 -10.6 °C -15.5 °C 34347.6 hPa East 15 km/h 15 km/h 55 % 0 mm 183.0 W/m2 CLR
17:11 -10.6 °C -15.7 °C 34347.6 hPa East 23.8 km/h 23.8 km/h 54 % 0 mm 197.0 W/m2 CLR
17:16 -10.6 °C -15.4 °C 34347.6 hPa East 20.9 km/h 20.9 km/h 56 % 0 mm 141.0 W/m2 CLR
17:21 -10.6 °C -15.4 °C 34347.6 hPa ESE 15 km/h 15 km/h 56 % 0 mm 116.0 W/m2 CLR
17:26 -10.6 °C -15.2 °C 34347.6 hPa ESE 20.9 km/h 20.9 km/h 57 % 0 mm 95.0 W/m2 CLR
17:31 -10.7 °C -15 °C 34361.1 hPa ESE 11.9 km/h 11.9 km/h 59 % 0 mm 97.0 W/m2 CLR
17:36 -10.7 °C -15 °C 34347.6 hPa ESE 29.8 km/h 29.8 km/h 59 % 0 mm 100.0 W/m2 CLR
17:41 -10.7 °C -14.9 °C 34347.6 hPa ESE 20.8 km/h 20.8 km/h 60 % 0 mm 84.0 W/m2 CLR
17:46 -10.7 °C -14.9 °C 34361.1 hPa ESE 17.9 km/h 17.9 km/h 60 % 0 mm 76.0 W/m2 CLR
17:51 -10.7 °C -14.9 °C 34361.1 hPa ESE 9 km/h 9 km/h 60 % 0 mm 62.0 W/m2 FEW
17:56 -10.8 °C -14.9 °C 34361.1 hPa ESE 17.9 km/h 17.9 km/h 61 % 0 mm 67.0 W/m2 FEW
18:01 -10.8 °C -14.9 °C 34361.1 hPa SE 15 km/h 15 km/h 61 % 0 mm 70.0 W/m2 FEW
18:06 -10.8 °C -14.9 °C 34361.1 hPa East 26.9 km/h 26.9 km/h 61 % 0 mm 62.0 W/m2 FEW
18:11 -10.9 °C -14.8 °C 34361.1 hPa East 15 km/h 15 km/h 62 % 0 mm 40.0 W/m2 SCT
18:16 -10.9 °C -14.8 °C 34361.1 hPa ESE 10.3 km/h 10.3 km/h 62 % 0 mm 47.0 W/m2 SCT
18:21 -10.9 °C -14.8 °C 34361.1 hPa East 18.2 km/h 18.2 km/h 62 % 0 mm 40.0 W/m2 BKN
18:26 -10.9 °C -14.8 °C 34361.1 hPa East 11.9 km/h 11.9 km/h 63 % 0 mm 37.0 W/m2 BKN
18:31 -11 °C -14.8 °C 34361.1 hPa East 9 km/h 9 km/h 63 % 0 mm 30.0 W/m2 BKN
18:36 -11 °C -14.8 °C 34371.3 hPa East 9 km/h 9 km/h 63 % 0 mm 30.0 W/m2 BKN
18:41 -11 °C -14.8 °C 34371.3 hPa East 17.9 km/h 17.9 km/h 63 % 0 mm 25.0 W/m2 BKN
18:46 -11 °C -14.7 °C 34371.3 hPa ESE 5.1 km/h 5.1 km/h 64 % 0 mm 18.0 W/m2 BKN
18:51 -11.1 °C -14.7 °C 34371.3 hPa ESE 9 km/h 9 km/h 64 % 0 mm 12.0 W/m2 BKN
18:56 -11.1 °C -14.8 °C 34371.3 hPa Calm     64 % 0 mm 9.0 W/m2 BKN
19:01 -11.1 °C -14.8 °C 34371.3 hPa Calm     64 % 0 mm 7.0 W/m2 BKN
19:06 -11.2 °C -14.7 °C 34371.3 hPa East 9 km/h 9 km/h 65 % 0 mm 5.0 W/m2 OVC
19:11 -11.2 °C -14.7 °C 34371.3 hPa Calm     65 % 0 mm 0.0 W/m2 OVC
19:16 -11.2 °C -14.6 °C 34371.3 hPa Calm     66 % 0 mm 0.0 W/m2 OVC
19:21 -11.3 °C -14.6 °C 34371.3 hPa Calm     67 % 0 mm 0.0 W/m2 OVC
19:26 -11.3 °C -14.6 °C 34384.8 hPa Calm     67 % 0 mm 0.0 W/m2 OVC
19:31 -11.4 °C -14.6 °C 34384.8 hPa NE 20.9 km/h 20.9 km/h 68 % 0 mm 0.0 W/m2 CLR
19:36 -11.7 °C -14.6 °C 34384.8 hPa NE 10.3 km/h 10.3 km/h 70 % 0 mm 0.0 W/m2 CLR
19:41 -12 °C -14.6 °C 34395 hPa North 20.9 km/h 20.9 km/h 73 % 0 mm 0.0 W/m2 CLR
19:46 -12.3 °C -14.6 °C 34395 hPa North 20.9 km/h 20.9 km/h 75 % 0 mm 0.0 W/m2 CLR
19:51 -12.4 °C -14.7 °C 34395 hPa NNE 15 km/h 15 km/h 76 % 0 mm 0.0 W/m2 CLR
19:53 -12.4 °C -14.7 °C 34395 hPa NNE 15.6 km/h 15.6 km/h 76 % 0 mm 0.0 W/m2 CLR
19:58 -12.6 °C -14.7 °C 34405.1 hPa NNE 11.9 km/h   77 % 0 mm 0.0 W/m2 CLR
20:03 -12.7 °C -14.7 °C 34405.1 hPa Calm     78 % 0 mm 0.0 W/m2 CLR
20:08 -12.8 °C -14.8 °C 34405.1 hPa Calm     78 % 0 mm 0.0 W/m2 CLR
20:13 -12.8 °C -14.8 °C 34405.1 hPa Calm     78 % 0 mm 0.0 W/m2 CLR
20:18 -12.9 °C -14.8 °C 34418.7 hPa Calm     79 % 0 mm 0.0 W/m2 CLR
20:23 -12.9 °C -14.8 °C 34418.7 hPa Calm     79 % 0 mm 0.0 W/m2 CLR
20:28 -12.9 °C -14.8 °C 34405.1 hPa Calm     80 % 0 mm 0.0 W/m2 CLR
20:33 -13 °C -14.8 °C 34418.7 hPa Calm     80 % 0 mm 0.0 W/m2 CLR
20:38 -13.1 °C -14.9 °C 34418.7 hPa Calm     80 % 0 mm 0.0 W/m2 CLR
20:43 -13.2 °C -14.8 °C 34418.7 hPa Calm     81 % 0 mm 0.0 W/m2 CLR
20:48 -13.2 °C -14.9 °C 34418.7 hPa Calm     81 % 0 mm 0.0 W/m2 CLR
20:53 -13.2 °C -14.9 °C 34418.7 hPa Calm     81 % 0 mm 0.0 W/m2 CLR
20:58 -13.2 °C -14.9 °C 34418.7 hPa Calm     81 % 0 mm 0.0 W/m2 CLR
21:03 -13.3 °C -14.9 °C 34418.7 hPa Calm     82 % 0 mm 0.0 W/m2 CLR
21:08 -13.4 °C -15 °C 34418.7 hPa Calm     82 % 0 mm 0.0 W/m2 CLR
21:13 -13.5 °C -15 °C 34428.8 hPa Calm     83 % 0 mm 0.0 W/m2 CLR
21:18 -13.5 °C -15.1 °C 34428.8 hPa Calm     83 % 0 mm 0.0 W/m2 CLR
21:23 -13.5 °C -15.1 °C 34428.8 hPa Calm     83 % 0 mm 0.0 W/m2 CLR
21:28 -13.6 °C -14.9 °C 34442.4 hPa Calm     84 % 0 mm 0.0 W/m2 CLR
21:33 -13.6 °C -15 °C 34452.6 hPa Calm     84 % 0 mm 0.0 W/m2 CLR
21:38 -13.7 °C -15.1 °C 34452.6 hPa Calm     84 % 0 mm 0.0 W/m2 CLR
21:43 -13.7 °C -15.1 °C 34452.6 hPa Calm     84 % 0 mm 0.0 W/m2 CLR
21:48 -13.7 °C -15 °C 34452.6 hPa Calm     85 % 0 mm 0.0 W/m2 CLR
21:53 -13.7 °C -15 °C 34452.6 hPa Calm     85 % 0 mm 0.0 W/m2 CLR
21:58 -13.7 °C -14.9 °C 34452.6 hPa Calm     85 % 0 mm 0.0 W/m2 CLR
22:03 -13.7 °C -14.9 °C 34452.6 hPa Calm     85 % 0 mm 0.0 W/m2 CLR
22:08 -13.7 °C -14.9 °C 34452.6 hPa Calm     85 % 0 mm 0.0 W/m2 CLR
22:13 -13.7 °C -14.9 °C 34452.6 hPa Calm     85 % 0 mm 0.0 W/m2 CLR
22:18 -13.7 °C -14.9 °C 34452.6 hPa Calm     85 % 0 mm 0.0 W/m2 CLR
22:23 -13.7 °C -14.9 °C 34452.6 hPa Calm     85 % 0 mm 0.0 W/m2 CLR
22:28 -13.7 °C -14.9 °C 34452.6 hPa Calm     86 % 0 mm 0.0 W/m2 CLR
22:33 -13.7 °C -14.9 °C 34452.6 hPa Calm     86 % 0 mm 0.0 W/m2 CLR
22:38 -13.7 °C -14.8 °C 34452.6 hPa Calm     86 % 0 mm 0.0 W/m2 CLR
22:43 -13.7 °C -14.8 °C 34452.6 hPa Calm     86 % 0 mm 0.0 W/m2 CLR
22:48 -13.7 °C -14.8 °C 34452.6 hPa Calm     86 % 0 mm 0.0 W/m2 CLR
22:53 -13.7 °C -14.8 °C 34452.6 hPa Calm     86 % 0 mm 0.0 W/m2 CLR
22:58 -13.7 °C -14.8 °C 34452.6 hPa Calm     86 % 0 mm 0.0 W/m2 CLR
23:03 -13.7 °C -14.8 °C 34452.6 hPa Calm     86 % 0 mm 0.0 W/m2 CLR
23:08 -13.7 °C -14.8 °C 34452.6 hPa Calm     86 % 0 mm 0.0 W/m2 CLR
23:13 -13.7 °C -14.9 °C 34452.6 hPa Calm     86 % 0 mm 0.0 W/m2 CLR
23:18 -13.7 °C -14.9 °C 34452.6 hPa Calm     86 % 0 mm 0.0 W/m2 CLR
23:23 -13.7 °C -14.9 °C 34462.7 hPa Calm     86 % 0 mm 0.0 W/m2 CLR
23:28 -13.7 °C -14.9 °C 34462.7 hPa Calm     86 % 0 mm 0.0 W/m2 CLR
23:33 -13.6 °C -14.8 °C 34462.7 hPa Calm     86 % 0 mm 0.0 W/m2 CLR
23:38 -13.5 °C -14.8 °C 34462.7 hPa Calm     85 % 0 mm 0.0 W/m2 CLR
23:43 -13.5 °C -14.8 °C 34462.7 hPa Calm     85 % 0 mm 0.0 W/m2 CLR
23:48 -13.5 °C -14.8 °C 34462.7 hPa Calm     85 % 0 mm 0.0 W/m2 CLR
23:49 -13.5 °C -14.8 °C 34462.7 hPa Calm     85 % 0 mm 0.0 W/m2 CLR
23:54 -13.6 °C -14.9 °C 34462.7 hPa Calm     85 % 0 mm 0.0 W/m2 CLR
23:59 -13.6 °C -14.9 °C 34462.7 hPa Calm     85 % 0 mm 0.0 W/m2 CLR
Lo Temps de Massalio
Compliments of Weather Underground - 1.25 mb